#timestamp,LO_Frequency,Hit,StdDev 
1509462015.4,286047002.3,N
1509462035.3,286046998.7,N
1509462055.1,286047000.7,N
1509462056.0,286047000.7,N
1509462075.8,286047001.2,N
1509462095.7,286046998.0,N
1509462115.5,286046999.2,N
1509462135.3,286046999.8,N
1509462155.2,286047005.2,N
1509462175.9,286047004.6,N
1509462195.7,286047010.4,Y
1509462215.6,286047010.3,P
1509462235.4,286047007.2,N
1509462255.2,286047007.6,N
1509462275.1,286047006.8,N
1509462276.0,286047006.8,N
1509462295.8,286047004.1,N
1509462315.6,286047003.8,N
1509462335.5,286047008.4,Y
1509462355.3,286047003.8,P
1509462375.2,286047004.0,P
1509462395.9,286047007.5,P
1509462415.7,286047005.6,Y
1509462435.6,286046997.5,P
1509462455.4,286046997.8,N
1509462475.2,286046996.0,N
1509462495.1,286046993.3,N
1509462496.0,286046993.3,N
1509462515.8,286046994.8,N
1509462535.6,286046992.8,N
1509462555.5,286046994.5,N
1509462575.3,286046998.0,N
1509462595.1,286046998.6,N
1509462615.9,286046999.8,N
1509462635.7,286046998.1,N
1509462655.5,286047000.9,N
1509462675.4,286047001.5,N
1509462695.2,286047002.3,N
1509462715.0,286047000.5,N
1509462715.9,286047000.5,N
1509462735.8,286046996.6,N
1509462755.6,286046995.2,N
1509462775.5,286046997.0,N
1509462795.3,286046990.6,N
1509462815.1,286046992.0,N
1509462835.9,286046991.8,N
1509462855.7,286046987.3,Y
1509462875.5,286046987.0,P
1509462895.4,286046988.8,N
1509462915.2,286046990.7,N
1509462935.0,286046990.4,N
1509462935.9,286046990.4,N
1509462955.8,286046989.0,Y
1509462975.6,286046997.3,P
1509462995.4,286046995.5,N
1509463015.3,286046996.3,N
1509463035.1,286046994.1,N
1509463055.9,286046987.0,Y
1509463075.7,286046994.1,P
1509463095.5,286046995.7,P
1509463115.4,286046996.6,P
1509463135.2,286047002.4,N
1509463155.0,286047003.5,N
1509463155.9,286047003.5,N
1509463175.8,286047004.6,N
1509463195.6,286047002.3,N
1509463215.4,286046998.9,N
1509463235.3,286046997.8,N
1509463255.1,286046998.4,N
1509463275.8,286047000.7,N
1509463295.7,286047000.4,N
1509463315.5,286047002.3,N
1509463335.3,286047001.8,N
1509463355.2,286047003.8,N
1509463375.0,286047000.3,N
1509463375.9,286047000.3,N
1509463395.7,286046997.0,N
1509463415.6,286047000.9,N
1509463435.4,286047002.4,N
1509463455.2,286047001.7,N
1509463475.1,286047004.3,N
1509463476.0,286047004.3,N
1509463495.8,286047003.9,N
1509463515.7,286047003.5,N
1509463535.5,286047003.7,N
1509463555.3,286047001.7,N
1509463575.2,286047003.0,N
1509463595.9,286047002.1,N
1509463615.7,286047005.5,N
1509463635.6,286047003.7,N
1509463655.4,286047001.9,N
1509463675.2,286046998.3,N
1509463695.1,286046998.6,N
1509463696.0,286046998.6,N
1509463715.8,286047002.5,N
1509463735.6,286047003.8,N
1509463755.5,286047001.3,N
1509463775.3,286047002.0,N
1509463795.1,286047003.9,N
1509463815.9,286047001.3,N
1509463835.7,286047002.3,N
1509463855.5,286047000.6,N
1509463875.4,286046999.1,N
1509463895.2,286046995.2,N
1509463915.0,286046998.0,N
1509463915.9,286046998.0,N
1509463935.8,286047000.9,N
1509463955.6,286047001.8,N
1509463975.4,286047004.1,N
1509463995.3,286047005.8,N
1509464015.1,286047004.0,N
1509464035.9,286047000.6,N
1509464055.7,286046999.7,N
1509464075.5,286046996.5,N
1509464095.4,286046996.6,N
1509464115.2,286046995.5,N
1509464135.0,286046994.2,N
1509464135.9,286046994.2,N
1509464155.8,286046992.7,N
1509464175.6,286046992.3,N
1509464195.4,286046991.7,N
1509464215.3,286046996.4,N
1509464235.1,286046995.6,N
1509464236.0,286046995.6,N
1509464255.8,286046996.4,N
1509464275.7,286046998.0,N
1509464295.5,286046995.3,N
1509464315.3,286046997.3,N
1509464335.2,286047001.1,N
1509464355.0,286046999.4,N
1509464355.9,286046999.4,N
1509464375.7,286046995.9,N
1509464395.6,286046997.3,N
1509464415.4,286046996.9,N
1509464435.2,286046998.8,N
1509464455.1,286046996.8,N
1509464456.0,286046996.8,N
1509464475.8,286046993.6,N
1509464495.7,286046993.9,N
1509464515.5,286046995.2,N
1509464535.3,286046995.3,N
1509464555.2,286046995.8,N
1509464575.9,286046992.9,Y
1509464595.7,286046996.3,P
1509464615.6,286046994.3,P
1509464635.4,286046992.2,P
1509464655.2,286046995.2,N
1509464675.1,286046994.8,Y
1509464676.0,286046994.8,P
1509464695.8,286046994.0,P
1509464715.7,286046996.8,P
1509464735.5,286046997.3,N
1509464755.3,286046999.5,N
1509464775.2,286046996.8,N
1509464795.9,286046999.1,N
1509464815.7,286046997.0,N
1509464835.6,286046998.0,N
1509464855.4,286046996.7,N
1509464875.2,286046993.8,Y
1509464895.1,286047001.1,P
1509464896.0,286047001.1,N
1509464915.8,286046997.4,N
1509464935.6,286047001.0,N
1509464955.5,286047003.9,N
1509464975.3,286047007.0,N
1509464995.1,286047007.6,N
1509465015.9,286047010.6,N
1509465035.7,286047010.3,N
1509465055.5,286047008.4,N
1509465075.4,286047005.4,N
1509465095.2,286047005.8,N
1509465115.0,286047003.5,N
1509465116.0,286047003.5,N
1509465135.8,286047005.6,N
1509465155.6,286047002.2,N
1509465175.5,286046999.5,N
1509465195.3,286046999.9,N
1509465215.1,286047004.1,N
1509465235.9,286047001.3,N
1509465255.7,286047005.6,N
1509465275.5,286047005.6,N
1509465295.4,286047004.8,N
1509465315.2,286047007.2,N
1509465335.0,286047007.8,N
1509465335.9,286047007.8,N
1509465355.8,286047004.0,N
1509465375.6,286047000.2,N
1509465395.4,286047003.9,N
1509465415.3,286047003.4,N
1509465435.1,286047005.4,N
1509465436.0,286047005.4,N
1509465455.8,286047004.3,N
1509465475.7,286047000.9,N
1509465495.5,286047001.2,N
1509465515.3,286046998.8,N
1509465535.2,286047002.1,N
1509465555.0,286046999.3,N
1509465555.9,286046999.3,N
1509465575.7,286046998.6,N
1509465595.6,286046998.6,N
